Red Oak
Tuesday 11:15 PM
Temperature59° (75°/50°)
Dew Point57°
Relative Humidity94
%
Visibility10
mi
Pressure1019.6
mb
Wind Direction
Wind Speed3
mph
Precipitation Today0.00"

Last 30 Observations

Time PresWx Temp DP Feels RH% Vsby Pressure Ceiling Direction Speed 1h Precip
10:55 PM 59° 57° 94
%
10
mi
1019.3
mb
Calm 0.00"
10:35 PM 59° 57° 94
%
10
mi
1019.7
mb
Calm 0.00"
10:15 PM 61° 57° 88
%
10
mi
1020.0
mb
Calm 0.00"
9:55 PM 61° 57° 88
%
10
mi
1020.0
mb
Calm 0.00"
9:35 PM 63° 57° 83
%
10
mi
1019.7
mb
Calm 0.00"
9:15 PM 63° 59° 88
%
10
mi
1019.3
mb
0.00"
8:55 PM 64° 59° 83
%
10
mi
1019.0
mb
SW
220°
3
mph
0.00"
8:35 PM 66° 59° 78
%
10
mi
1018.6
mb
SSE
160°
5
mph
0.00"
8:15 PM 68° 59° 73
%
10
mi
1018.6
mb
SE
140°
8
mph
0.00"
7:55 PM 70° 59° 69
%
10
mi
1018.6
mb
SSE
150°
7
mph
0.00"
7:35 PM 72° 59° 71°65
%
10
mi
1018.6
mb
S
170°
6
mph
0.00"
7:15 PM 72° 57° 71°60
%
10
mi
1019.0
mb
SSE
160°
7
mph
0.00"
6:55 PM 73° 57° 73°57
%
10
mi
1019.0
mb
SSE
160°
6
mph
0.00"
6:35 PM 73° 57° 73°57
%
10
mi
1019.0
mb
S
190°
5
mph
0.00"
6:15 PM 73° 55° 73°53
%
10
mi
1019.3
mb
S
190°
3
mph
0.00"
5:55 PM 73° 54° 73°50
%
10
mi
1019.3
mb
Calm 0.00"
5:35 PM 75° 52° 74°44
%
10
mi
1019.3
mb
Calm 0.00"
5:15 PM 75° 52° 74°44
%
10
mi
1019.7
mb
Calm 0.00"
4:55 PM 75° 52° 74°44
%
10
mi
1019.7
mb
WNW
300°
3
mph
0.00"
4:35 PM 73° 55° 73°53
%
10
mi
1020.0
mb
N
10°
7
mph
0.00"
4:15 PM 75° 54° 75°47
%
10
mi
1020.0
mb
Calm 0.00"
3:55 PM 75° 54° 75°47
%
10
mi
1020.3
mb
Calm 0.00"
3:35 PM 75° 54° 75°47
%
10
mi
1020.3
mb
NE
50°
7
mph
0.00"
3:15 PM 75° 55° 75°50
%
10
mi
1020.7
mb
Variable 3
mph
0.00"
2:55 PM 73° 54° 73°50
%
10
mi
1020.7
mb
SE
140°
5
mph
0.00"
2:35 PM 73° 54° 73°50
%
10
mi
1021.0
mb
Calm 0.00"
2:15 PM 75° 54° 75°47
%
10
mi
1021.0
mb
6
mph
0.00"
1:55 PM 75° 54° 75°47
%
10
mi
1021.0
mb
Variable 6
mph
0.00"
1:35 PM 73° 54° 73°50
%
10
mi
1021.3
mb
Calm 0.00"
1:15 PM 73° 54° 73°50
%
10
mi
1021.3
mb
E
80°
6
mph
0.00"